Location: Châteauvieux
(47.2310°N, 1.3828°E)
Time: 00:04:45
(UTC+00:00)

Cosmos 2233 Rocket - Pass Details

Date: 15 May 2026
Orbit: 952 x 990 km, 82.9° (Epoch: 9 June)

Event Time Altitude Azimuth Distance (km) Brightness Sun altitude
Rises 20:05:44 0° 176° (S) 3,649 6.6 -6.7°
Reaches altitude 10° 20:08:15 10° 174° (S) 2,701 5.9 -7.1°
Maximum altitude 20:14:21 65° 94° (E) 1,053 4.0 -7.9°
Drops below altitude 10° 20:20:26 10° 14° (NNE) 2,697 6.7 -8.7°
Sets 20:22:57 0° 12° (NNE) 3,643 7.4 -9.0°
